Date String (YYYY-MM-DD hh:mm:ss) UTC,Instrument flags,absolute air pressure of the measurement (hPa),sample flow rate (lpm),inlet stack bypass flow (lpm),air temperature of the measurement (°C),ambient temperature measured by the external sensor (°C),aerosol sample conditioner tube jacket temperature (°C),OPC LED temperature (°C),internal box temperature (°C),relative humidity of the measurement (%),span deviation,mass concentration of particles derived from Lorenz-Mie calculation of OPC scattering (μg/m³),mass concentration of particles derived from Lorenz-Mie calculation of OPC scattering (μg/m³),mass concentration of particles derived from Lorenz-Mie calculation of OPC scattering (μg/m³)
DateTimeUTC,F1_M11,P_M11,Q1_M11,Q2_M11,T1_M11,T2_M11,T3_M11,T4_M11,T5_M11,U1_M11,ZSPAN_M11,X0_M11,X2_M11,X1_M11
2023-06-09 07:00:00,SystemResetWarning,0831.6,5.00,000.00,029.3,027.7,000.0,038.0,030.7,23.2,0000.0,0005.99,0003.12,0002.18
2023-06-09 07:01:00,SystemResetWarning,0831.6,5.00,000.00,029.3,027.7,000.0,038.0,030.7,22.8,0000.0,0005.92,0003.10,0002.17
2023-06-09 07:02:00,SystemResetWarning,0831.5,5.00,000.00,029.3,027.7,000.0,037.9,030.7,22.9,0000.0,0006.24,0003.03,0002.16
2023-06-09 07:03:00,SystemResetWarning,0831.5,5.01,000.00,029.3,027.8,000.0,038.0,030.7,22.3,0000.0,0006.49,0002.95,0002.12
2023-06-09 07:04:00,SystemResetWarning,0831.5,5.00,000.00,029.3,027.8,000.0,037.9,030.8,21.9,0000.0,0006.51,0002.96,0002.10
2023-06-09 07:05:00,SystemResetWarning,0831.5,5.00,000.00,029.3,027.8,000.0,038.0,030.8,22.2,0000.0,0006.74,0002.96,0002.08
2023-06-09 07:06:00,SystemResetWarning,0831.5,5.00,000.00,029.3,027.8,000.0,038.0,030.8,22.0,0000.0,0006.82,0002.93,0002.06
2023-06-09 07:07:00,SystemResetWarning,0831.5,4.99,000.00,029.3,027.8,000.0,038.0,030.8,22.0,0000.0,0007.00,0002.88,0002.03
2023-06-09 07:08:00,SystemResetWarning,0831.5,5.00,000.00,029.3,027.9,000.0,038.0,030.7,21.7,0000.0,0006.87,0002.83,0001.98
2023-06-09 07:09:00,SystemResetWarning,0831.5,5.01,000.00,029.3,027.9,000.0,038.0,030.7,21.8,0000.0,0006.89,0002.82,0001.96
2023-06-09 07:10:00,SystemResetWarning,0831.5,5.01,000.00,029.3,027.9,000.0,038.0,030.7,22.1,0000.0,0006.90,0002.79,0001.92
2023-06-09 07:11:00,SystemResetWarning,0831.5,5.01,000.00,029.4,027.9,000.0,038.0,030.7,21.7,0000.0,0006.80,0002.77,0001.89
2023-06-09 07:12:00,SystemResetWarning,0831.5,4.98,000.00,029.4,027.9,000.0,038.0,030.7,22.0,0000.0,0006.56,0002.74,0001.88
2023-06-09 07:13:00,SystemResetWarning,0831.5,5.00,000.00,029.4,027.8,000.0,038.0,030.7,22.1,0000.0,0006.19,0002.71,0001.86
2023-06-09 07:14:00,SystemResetWarning,0831.4,5.01,000.00,029.4,027.8,000.0,038.0,030.7,22.2,0000.0,0006.17,0002.82,0001.88
2023-06-09 07:15:00,SystemResetWarning,0831.5,5.01,000.00,029.3,027.8,000.0,038.0,030.7,22.3,0000.0,0006.51,0002.87,0001.90
2023-06-09 07:16:00,SystemResetWarning,0831.5,5.01,000.00,029.3,027.8,000.0,038.0,030.7,22.4,0000.0,0006.58,0002.90,0001.90
2023-06-09 07:17:00,SystemResetWarning,0831.5,5.00,000.00,029.3,027.8,000.0,038.0,030.7,22.6,0000.0,0006.98,0003.04,0001.92
2023-06-09 07:18:00,SystemResetWarning,0831.4,4.99,000.00,029.3,027.8,000.0,038.0,030.7,22.5,0000.0,0006.96,0003.10,0001.94
2023-06-09 07:19:00,SystemResetWarning,0831.5,5.00,000.00,029.3,027.8,000.0,038.0,030.6,22.6,0000.0,0007.19,0003.16,0001.99
2023-06-09 07:20:00,SystemResetWarning,0831.4,5.00,000.00,029.3,027.8,000.0,038.0,030.6,22.3,0000.0,0007.40,0003.21,0002.01
2023-06-09 07:21:00,SystemResetWarning,0831.4,5.00,000.00,029.3,027.8,000.0,038.0,030.6,22.4,0000.0,0007.56,0003.24,0002.03
2023-06-09 07:22:00,SystemResetWarning,0831.4,5.00,000.00,029.3,027.8,000.0,038.0,030.6,22.4,0000.0,0007.63,0003.26,0002.06
2023-06-09 07:23:00,SystemResetWarning,0831.4,5.00,000.00,029.3,027.8,000.0,038.0,030.6,22.4,0000.0,0007.99,0003.29,0002.09
2023-06-09 07:24:00,SystemResetWarning,0831.4,5.00,000.00,029.3,027.7,000.0,038.0,030.6,22.3,0000.0,0008.28,0003.33,0002.11
2023-06-09 07:25:00,SystemResetWarning,0831.4,4.99,000.00,029.3,027.7,000.0,038.0,030.5,22.2,0000.0,0008.00,0003.34,0002.13
2023-06-09 07:26:00,SystemResetWarning,0831.4,5.00,000.00,029.2,027.7,000.0,037.9,030.5,22.1,0000.0,0008.11,0003.40,0002.15
2023-06-09 07:27:00,SystemResetWarning,0831.4,4.99,000.00,029.2,027.7,000.0,037.9,030.5,22.1,0000.0,0008.26,0003.40,0002.15
2023-06-09 07:28:00,SystemResetWarning,0831.4,5.00,000.00,029.2,027.7,000.0,037.9,030.5,22.1,0000.0,0008.05,0003.35,0002.15
2023-06-09 07:29:00,SystemResetWarning,0831.4,5.00,000.00,029.2,027.7,000.0,037.9,030.5,22.0,0000.0,0008.48,0003.38,0002.18
2023-06-09 07:30:00,SystemResetWarning,0831.3,5.00,000.00,029.2,027.7,000.0,037.9,030.5,22.1,0000.0,0008.64,0003.40,0002.17
2023-06-09 07:31:00,SystemResetWarning,0831.3,5.00,000.00,029.2,027.6,000.0,037.9,030.4,21.8,0000.0,0008.56,0003.41,0002.18
2023-06-09 07:32:00,SystemResetWarning,0831.3,5.00,000.00,029.2,027.6,000.0,037.9,030.4,22.0,0000.0,0008.50,0003.46,0002.19
2023-06-09 07:33:00,SystemResetWarning,0831.3,5.01,000.00,029.2,027.6,000.0,037.9,030.4,21.9,0000.0,0008.71,0003.47,0002.20
2023-06-09 07:34:00,SystemResetWarning,0831.3,5.00,000.00,029.1,027.6,000.0,037.9,030.4,21.9,0000.0,0008.86,0003.45,0002.19
2023-06-09 07:35:00,SystemResetWarning,0831.4,5.00,000.00,029.1,027.6,000.0,037.9,030.4,21.8,0000.0,0008.71,0003.44,0002.19
2023-06-09 07:36:00,SystemResetWarning,0831.3,4.99,000.00,029.1,027.6,000.0,037.9,030.4,21.7,0000.0,0008.69,0003.42,0002.18
2023-06-09 07:37:00,SystemResetWarning,0831.3,5.00,000.00,029.1,027.6,000.0,037.9,030.4,21.7,0000.0,0008.52,0003.38,0002.15
2023-06-09 07:38:00,SystemResetWarning,0831.3,5.01,000.00,029.1,027.6,000.0,037.8,030.4,21.6,0000.0,0008.27,0003.36,0002.16
2023-06-09 07:39:00,SystemResetWarning,0831.3,5.01,000.00,029.1,027.6,000.0,037.8,030.4,21.7,0000.0,0009.12,0003.38,0002.15
2023-06-09 07:40:00,SystemResetWarning,0831.3,5.00,000.00,029.1,027.6,000.0,037.8,030.3,21.5,0000.0,0008.74,0003.32,0002.12
2023-06-09 07:41:00,SystemResetWarning,0831.3,4.99,000.00,029.1,027.6,000.0,037.8,030.3,21.3,0000.0,0008.60,0003.29,0002.09
2023-06-09 07:42:00,SystemResetWarning,0831.3,4.99,000.00,029.1,027.6,000.0,037.8,030.4,21.3,0000.0,0008.52,0003.26,0002.07
2023-06-09 07:43:00,SystemResetWarning,0831.3,5.00,000.00,029.1,027.6,000.0,037.8,030.4,21.3,0000.0,0008.29,0003.17,0002.04
2023-06-09 07:44:00,SystemResetWarning,0831.3,5.00,000.00,029.1,027.6,000.0,037.8,030.3,21.5,0000.0,0008.08,0003.13,0002.03
2023-06-09 07:45:00,SystemResetWarning,0831.3,4.99,000.00,029.1,027.6,000.0,037.8,030.3,21.3,0000.0,0007.71,0003.13,0002.02
2023-06-09 07:46:00,SystemResetWarning,0831.3,5.00,000.00,029.1,027.6,000.0,037.8,030.3,21.1,0000.0,0007.36,0003.09,0002.00
2023-06-09 07:47:00,SystemResetWarning,0831.3,5.01,000.00,029.1,027.6,000.0,037.8,030.3,21.2,0000.0,0007.79,0003.15,0002.00
2023-06-09 07:48:00,SystemResetWarning,0831.2,5.01,000.00,029.0,027.5,000.0,037.8,030.3,21.1,0000.0,0007.75,0003.10,0001.99
2023-06-09 07:49:00,SystemResetWarning,0831.2,5.00,000.00,029.0,027.5,000.0,037.8,030.3,21.0,0000.0,0007.73,0003.09,0001.97
2023-06-09 07:50:00,SystemResetWarning,0831.2,4.99,000.00,029.0,027.5,000.0,037.8,030.3,20.8,0000.0,0007.08,0003.05,0001.96
2023-06-09 07:51:00,SystemResetWarning,0831.3,5.00,000.00,029.0,027.5,000.0,037.7,030.2,20.8,0000.0,0006.41,0003.07,0001.95
2023-06-09 07:52:00,SystemResetWarning,0831.3,5.00,000.00,029.0,027.5,000.0,037.7,030.2,20.8,0000.0,0006.58,0003.05,0001.94
2023-06-09 07:53:00,SystemResetWarning,0831.2,5.00,000.00,029.0,027.5,000.0,037.7,030.3,20.9,0000.0,0006.46,0003.03,0001.94
2023-06-09 07:54:00,SystemResetWarning,0831.2,5.00,000.00,029.0,027.5,000.0,037.7,030.3,20.8,0000.0,0006.42,0002.99,0001.92
2023-06-09 07:55:00,SystemResetWarning,0831.2,5.00,000.00,029.0,027.5,000.0,037.7,030.3,20.7,0000.0,0006.46,0003.02,0001.91
2023-06-09 07:56:00,SystemResetWarning,0831.2,5.01,000.00,029.0,027.5,000.0,037.7,030.3,20.9,0000.0,0006.43,0003.01,0001.90
2023-06-09 07:57:00,SystemResetWarning,0831.2,5.01,000.00,029.0,027.5,000.0,037.7,030.2,20.7,0000.0,0006.53,0003.05,0001.88
2023-06-09 07:58:00,SystemResetWarning,0831.1,5.01,000.00,029.0,027.4,000.0,037.7,030.2,20.8,0000.0,0005.90,0002.95,0001.85
2023-06-09 07:59:00,SystemResetWarning,0831.1,5.00,000.00,029.0,027.4,000.0,037.7,030.2,20.8,0000.0,0006.07,0002.93,0001.84
